CYBL

Campbell River  Airport

Campbell River, British Columbia, Canada
Issued Wind Visibility Ceiling Temperature Dew Point Humidity Barometer
Nov-20
05:00 UTC
300°
4 KTS
3 miles Overcast
1,400' AGL
C
41° F
C
41° F
100% 29.51" Hg
999.8 hPa
MVFR
Nov-20
04:00 UTC
270°
5 KTS
4 miles Broken
1,400' AGL
C
43° F
C
41° F
93% 29.5" Hg
999.3 hPa
MVFR
Nov-20
03:46 UTC
280°
5 KTS
4 miles Broken
1,400' AGL
C
43° F
C
41° F
93% 29.5" Hg
999.3 hPa
MVFR
Nov-20
03:11 UTC
280°
7 KTS
2 1/2 miles Broken
900' AGL
C
43° F
C
43° F
100% 29.49" Hg
999.1 hPa
IFR
Nov-20
03:00 UTC
300°
8 KTS
2 1/2 miles Broken
2,200' AGL
C
43° F
C
43° F
100% 29.49" Hg
999 hPa
IFR
Nov-20
02:12 UTC
320°
2 KTS
2 1/2 miles Broken
2,600' AGL
C
45° F
C
43° F
93% 29.48" Hg
998.6 hPa
IFR
Nov-20
02:00 UTC
Varies @2 KTS 1 1/2 miles Broken
2,500' AGL
C
45° F
C
45° F
100% 29.48" Hg
998.7 hPa
IFR
Nov-20
01:29 UTC
1 1/2 miles Broken
2,600' AGL
C
45° F
C
45° F
100% 29.48" Hg
998.6 hPa
IFR
Nov-20
01:00 UTC
1 1/2 miles Broken
800' AGL
C
45° F
C
45° F
100% 29.48" Hg
998.7 hPa
IFR
Nov-20
00:49 UTC
1 1/2 miles Broken
700' AGL
C
45° F
C
45° F
100% 29.49" Hg
998.8 hPa
IFR
Nov-20
00:37 UTC
2 miles Broken
700' AGL
C
46° F
C
45° F
93% 29.49" Hg
998.8 hPa
IFR
Nov-20
00:00 UTC
2 miles Broken
400' AGL
C
46° F
C
45° F
93% 29.49" Hg
998.9 hPa
LIFR
Nov-19
23:00 UTC
100°
2 KTS
2 miles Broken
300' AGL
C
46° F
C
45° F
93% 29.49" Hg
999.1 hPa
LIFR
Nov-19
22:43 UTC
120°
3 KTS
1 1/2 miles Broken
600' AGL
C
46° F
C
45° F
93% 29.49" Hg
998.9 hPa
IFR
Nov-19
22:00 UTC
3 miles Overcast
600' AGL
C
46° F
C
45° F
93% 29.5" Hg
999.2 hPa
IFR
Nov-19
21:00 UTC
150°
7 KTS
2 1/2 miles Overcast
500' AGL
C
46° F
C
45° F
93% 29.49" Hg
999 hPa
IFR
Nov-19
20:00 UTC
130°
7 KTS
Gust 16 KTS
2 miles Overcast
500' AGL
C
45° F
C
45° F
100% 29.5" Hg
999.3 hPa
IFR
Nov-19
19:00 UTC
130°
10 KTS
Gust 16 KTS
2 miles Overcast
500' AGL
C
45° F
C
45° F
100% 29.54" Hg
1000.6 hPa
IFR
Nov-19
18:52 UTC
120°
12 KTS
2 miles Overcast
500' AGL
C
45° F
C
45° F
100% 29.54" Hg
1000.7 hPa
IFR
Nov-19
18:00 UTC
130°
10 KTS
Gust 16 KTS
2 1/2 miles Overcast
700' AGL
C
45° F
C
45° F
100% 29.57" Hg
1001.6 hPa
IFR
Nov-19
17:52 UTC
130°
11 KTS
Gust 17 KTS
2 1/2 miles Overcast
700' AGL
C
45° F
C
43° F
93% 29.57" Hg
1001.6 hPa
IFR
Nov-19
17:00 UTC
120°
15 KTS
Gust 20 KTS
3 miles Overcast
600' AGL
C
45° F
C
43° F
93% 29.59" Hg
1002.4 hPa
IFR
Nov-19
16:43 UTC
130°
14 KTS
3 miles Broken
600' AGL
C
45° F
C
43° F
93% 29.6" Hg
1002.6 hPa
IFR
Nov-19
16:00 UTC
140°
15 KTS
Gust 22 KTS
4 miles Broken
600' AGL
C
45° F
C
43° F
93% 29.6" Hg
1002.7 hPa
IFR
Nov-19
15:51 UTC
130°
15 KTS
Gust 25 KTS
4 miles Broken
600' AGL
C
45° F
C
43° F
93% 29.6" Hg
1002.7 hPa
IFR
Nov-19
15:00 UTC
130°
16 KTS
Gust 24 KTS
3 miles Broken
600' AGL
C
45° F
C
43° F
93% 29.61" Hg
1003.2 hPa
IFR
Nov-19
14:33 UTC
120°
17 KTS
Gust 23 KTS
4 miles Broken
600' AGL
C
45° F
C
43° F
93% 29.62" Hg
1003.4 hPa
IFR
Nov-19
14:20 UTC
130°
18 KTS
Gust 27 KTS
2 miles Broken
1,000' AGL
C
45° F
C
43° F
93% 29.63" Hg
1003.9 hPa
IFR
Nov-19
14:00 UTC
120°
17 KTS
Gust 25 KTS
3 miles Broken
500' AGL
C
45° F
C
43° F
93% 29.64" Hg
1004.2 hPa
IFR